Time,TemperatureF,DewpointF,PressureIn,WindDirection,WindDirectionDegrees,WindSpeedMPH,WindSpeedGustMPH,Humidity,HourlyPrecipIn,Conditions,Clouds,dailyrainin,SoftwareType,DateUTC
2013-09-18 00:01:00,63.5,59.2,29.78,SSE,154,5.0,6.0,86,0.00,NA,NA,-99.99,VWS Version 10.39,2013-09-18 07:01:00,
2013-09-18 00:06:00,63.5,59.2,29.78,SE,138,7.0,9.0,86,0.00,NA,NA,-99.99,VWS Version 10.39,2013-09-18 07:06:00,
2013-09-18 00:11:00,63.4,59.2,29.78,SE,144,5.0,10.0,86,0.00,NA,NA,-99.99,VWS Version 10.39,2013-09-18 07:11:00,
2013-09-18 00:16:00,63.3,59.0,29.78,SSE,151,7.0,7.0,86,0.00,NA,NA,-99.99,VWS Version 10.39,2013-09-18 07:16:00,
2013-09-18 00:21:00,63.3,59.0,29.78,SSE,154,1.0,3.0,86,0.00,NA,NA,-99.99,VWS Version 10.39,2013-09-18 07:21:00,
2013-09-18 00:26:00,63.3,59.4,29.78,SSE,151,5.0,6.0,87,0.00,NA,NA,-99.99,VWS Version 10.39,2013-09-18 07:26:00,
2013-09-18 00:31:00,63.4,59.2,29.78,SE,143,4.0,4.0,86,0.00,NA,NA,-99.99,VWS Version 10.39,2013-09-18 07:31:00,
2013-09-18 00:36:00,63.4,59.2,29.78,SSE,165,2.0,4.0,86,0.00,NA,NA,-99.99,VWS Version 10.39,2013-09-18 07:36:00,
2013-09-18 00:41:00,63.3,58.7,29.78,SSE,155,1.0,1.0,85,0.00,NA,NA,-99.99,VWS Version 10.39,2013-09-18 07:41:00,
2013-09-18 00:46:00,63.3,59.0,29.78,SSE,165,4.0,6.0,86,0.00,NA,NA,-99.99,VWS Version 10.39,2013-09-18 07:46:00,
2013-09-18 00:51:00,63.3,58.7,29.78,SE,140,6.0,7.0,85,0.00,NA,NA,-99.99,VWS Version 10.39,2013-09-18 07:51:00,
2013-09-18 00:56:00,63.3,58.7,29.78,SSE,167,5.0,8.0,85,0.00,NA,NA,-99.99,VWS Version 10.39,2013-09-18 07:56:00,
2013-09-18 01:01:00,63.2,58.6,29.78,SE,142,5.0,6.0,85,0.00,NA,NA,-99.99,VWS Version 10.39,2013-09-18 08:01:00,
2013-09-18 01:06:00,63.2,58.6,29.78,SE,146,2.0,8.0,85,0.00,NA,NA,-99.99,VWS Version 10.39,2013-09-18 08:06:00,
2013-09-18 01:11:00,63.2,58.6,29.78,ESE,112,5.0,10.0,85,0.00,NA,NA,-99.99,VWS Version 10.39,2013-09-18 08:11:00,
2013-09-18 01:16:00,63.2,58.6,29.78,SE,130,3.0,4.0,85,0.00,NA,NA,-99.99,VWS Version 10.39,2013-09-18 08:16:00,
2013-09-18 01:21:00,63.2,58.6,29.78,ESE,112,4.0,5.0,85,0.00,NA,NA,-99.99,VWS Version 10.39,2013-09-18 08:21:00,
2013-09-18 01:26:00,63.2,58.6,29.78,East,85,2.0,5.0,85,0.00,NA,NA,-99.99,VWS Version 10.39,2013-09-18 08:26:00,
2013-09-18 01:31:00,63.3,58.7,29.78,ESE,111,4.0,7.0,85,0.00,NA,NA,-99.99,VWS Version 10.39,2013-09-18 08:31:00,
2013-09-18 01:36:00,63.4,58.8,29.78,East,98,3.0,3.0,85,0.00,NA,NA,-99.99,VWS Version 10.39,2013-09-18 08:36:00,
2013-09-18 01:41:00,63.4,58.8,29.78,ESE,117,5.0,5.0,85,0.00,NA,NA,-99.99,VWS Version 10.39,2013-09-18 08:41:00,
2013-09-18 01:46:00,63.4,58.8,29.78,ESE,107,4.0,6.0,85,0.00,NA,NA,-99.99,VWS Version 10.39,2013-09-18 08:46:00,
2013-09-18 01:51:00,63.4,58.8,29.78,ESE,107,1.0,2.0,85,0.00,NA,NA,-99.99,VWS Version 10.39,2013-09-18 08:51:00,
2013-09-18 01:56:00,63.4,58.8,29.78,ESE,113,3.0,3.0,85,0.00,NA,NA,-99.99,VWS Version 10.39,2013-09-18 08:56:00,
2013-09-18 02:01:00,63.4,58.5,29.78,East,84,2.0,5.0,84,0.00,NA,NA,-99.99,VWS Version 10.39,2013-09-18 09:01:00,
2013-09-18 02:06:00,63.4,58.5,29.78,East,92,3.0,3.0,84,0.00,NA,NA,-99.99,VWS Version 10.39,2013-09-18 09:06:00,
2013-09-18 02:11:00,63.5,58.6,29.78,ESE,108,2.0,5.0,84,0.00,NA,NA,-99.99,VWS Version 10.39,2013-09-18 09:11:00,
2013-09-18 02:16:00,63.5,58.6,29.78,East,101,3.0,4.0,84,0.00,NA,NA,-99.99,VWS Version 10.39,2013-09-18 09:16:00,
2013-09-18 02:21:00,63.5,58.6,29.77,East,92,3.0,3.0,84,0.00,NA,NA,-99.99,VWS Version 10.39,2013-09-18 09:21:00,
2013-09-18 02:26:00,63.5,58.6,29.77,East,82,2.0,3.0,84,0.00,NA,NA,-99.99,VWS Version 10.39,2013-09-18 09:26:00,
2013-09-18 02:31:00,63.5,58.6,29.77,ESE,119,5.0,5.0,84,0.00,NA,NA,-99.99,VWS Version 10.39,2013-09-18 09:31:00,
2013-09-18 02:36:00,63.5,58.6,29.77,ESE,111,4.0,5.0,84,0.00,NA,NA,-99.99,VWS Version 10.39,2013-09-18 09:36:00,
2013-09-18 02:41:00,63.4,58.5,29.77,East,82,5.0,6.0,84,0.00,NA,NA,-99.99,VWS Version 10.39,2013-09-18 09:41:00,
2013-09-18 02:46:00,63.4,58.5,29.76,ESE,107,8.0,9.0,84,0.00,NA,NA,-99.99,VWS Version 10.39,2013-09-18 09:46:00,
2013-09-18 02:51:00,63.3,58.4,29.76,ESE,120,5.0,6.0,84,0.00,NA,NA,-99.99,VWS Version 10.39,2013-09-18 09:51:00,
2013-09-18 02:56:00,63.2,58.3,29.76,ENE,75,3.0,5.0,84,0.00,NA,NA,-99.99,VWS Version 10.39,2013-09-18 09:56:00,
2013-09-18 03:01:00,63.2,58.3,29.76,East,97,8.0,8.0,84,0.00,NA,NA,-99.99,VWS Version 10.39,2013-09-18 10:01:00,
2013-09-18 03:11:00,63.1,58.2,29.76,ENE,73,4.0,7.0,84,0.00,NA,NA,-99.99,VWS Version 10.39,2013-09-18 10:11:00,
2013-09-18 03:16:00,63.2,58.3,29.76,ESE,113,5.0,5.0,84,0.00,NA,NA,-99.99,VWS Version 10.39,2013-09-18 10:16:00,
2013-09-18 03:21:00,63.2,58.3,29.76,East,97,3.0,5.0,84,0.00,NA,NA,-99.99,VWS Version 10.39,2013-09-18 10:21:00,
2013-09-18 03:26:00,63.2,58.0,29.75,East,98,3.0,3.0,83,0.00,NA,NA,-99.99,VWS Version 10.39,2013-09-18 10:26:00,
2013-09-18 03:31:00,63.2,58.0,29.75,ESE,104,4.0,5.0,83,0.00,NA,NA,-99.99,VWS Version 10.39,2013-09-18 10:31:00,
2013-09-18 03:36:00,63.2,58.0,29.75,East,94,3.0,3.0,83,0.00,NA,NA,-99.99,VWS Version 10.39,2013-09-18 10:36:00,
2013-09-18 03:41:00,63.2,58.0,29.75,East,83,5.0,5.0,83,0.00,NA,NA,-99.99,VWS Version 10.39,2013-09-18 10:41:00,
2013-09-18 03:46:00,63.2,58.0,29.75,ESE,109,4.0,5.0,83,0.00,NA,NA,-99.99,VWS Version 10.39,2013-09-18 10:46:00,
2013-09-18 03:51:00,63.2,58.0,29.75,ESE,106,5.0,6.0,83,0.00,NA,NA,-99.99,VWS Version 10.39,2013-09-18 10:51:00,
2013-09-18 03:56:00,63.3,58.1,29.75,ESE,104,4.0,5.0,83,0.00,NA,NA,-99.99,VWS Version 10.39,2013-09-18 10:56:00,
2013-09-18 04:01:00,63.3,58.1,29.75,East,84,3.0,3.0,83,0.00,NA,NA,-99.99,VWS Version 10.39,2013-09-18 11:01:00,
2013-09-18 04:06:00,63.3,58.1,29.75,East,90,5.0,6.0,83,0.00,NA,NA,-99.99,VWS Version 10.39,2013-09-18 11:06:00,
2013-09-18 04:11:00,63.4,58.2,29.75,ESE,109,4.0,5.0,83,0.00,NA,NA,-99.99,VWS Version 10.39,2013-09-18 11:11:00,
2013-09-18 04:16:00,63.5,58.2,29.75,ESE,107,2.0,4.0,83,0.00,NA,NA,-99.99,VWS Version 10.39,2013-09-18 11:16:00,
2013-09-18 04:21:00,63.6,58.3,29.75,East,96,5.0,5.0,83,0.00,NA,NA,-99.99,VWS Version 10.39,2013-09-18 11:21:00,
2013-09-18 04:26:00,63.6,58.3,29.76,ESE,103,2.0,3.0,83,0.00,NA,NA,-99.99,VWS Version 10.39,2013-09-18 11:26:00,
2013-09-18 04:31:00,63.7,58.5,29.76,East,95,3.0,5.0,83,0.00,NA,NA,-99.99,VWS Version 10.39,2013-09-18 11:31:00,
2013-09-18 04:36:00,63.8,58.5,29.75,East,87,2.0,3.0,83,0.00,NA,NA,-99.99,VWS Version 10.39,2013-09-18 11:36:00,
2013-09-18 04:41:00,63.8,58.5,29.76,East,83,2.0,2.0,83,0.00,NA,NA,-99.99,VWS Version 10.39,2013-09-18 11:41:00,
2013-09-18 04:46:00,63.8,58.2,29.76,ESE,113,3.0,4.0,82,0.00,NA,NA,-99.99,VWS Version 10.39,2013-09-18 11:46:00,
2013-09-18 04:51:00,63.7,58.1,29.76,East,94,3.0,3.0,82,0.00,NA,NA,-99.99,VWS Version 10.39,2013-09-18 11:51:00,
2013-09-18 04:56:00,63.6,58.0,29.76,East,85,2.0,5.0,82,0.00,NA,NA,-99.99,VWS Version 10.39,2013-09-18 11:56:00,
2013-09-18 05:11:00,63.5,57.9,29.76,East,90,2.0,3.0,82,0.00,NA,NA,-99.99,VWS Version 10.39,2013-09-18 12:11:00,
2013-09-18 05:16:00,63.5,57.9,29.77,East,93,2.0,2.0,82,0.00,NA,NA,-99.99,VWS Version 10.39,2013-09-18 12:16:00,
2013-09-18 05:21:00,63.6,58.3,29.77,ESE,107,3.0,4.0,83,0.00,NA,NA,-99.99,VWS Version 10.39,2013-09-18 12:21:00,
2013-09-18 05:26:00,63.6,58.0,29.77,East,84,5.0,5.0,82,0.00,NA,NA,-99.99,VWS Version 10.39,2013-09-18 12:26:00,
2013-09-18 05:31:00,63.6,58.0,29.77,ESE,104,2.0,3.0,82,0.00,NA,NA,-99.99,VWS Version 10.39,2013-09-18 12:31:00,
2013-09-18 05:36:00,63.6,58.0,29.77,ESE,109,3.0,3.0,82,0.00,NA,NA,-99.99,VWS Version 10.39,2013-09-18 12:36:00,
2013-09-18 05:41:00,63.6,58.0,29.77,SSE,157,0.0,0.0,82,0.00,NA,NA,-99.99,VWS Version 10.39,2013-09-18 12:41:00,
2013-09-18 05:46:00,63.7,58.8,29.77,South,186,3.0,3.0,84,0.00,NA,NA,-99.99,VWS Version 10.39,2013-09-18 12:46:00,
2013-09-18 05:51:00,63.8,59.2,29.77,SSE,160,7.0,7.0,85,0.00,NA,NA,-99.99,VWS Version 10.39,2013-09-18 12:51:00,
2013-09-18 05:56:00,63.6,58.7,29.77,SE,134,4.0,4.0,84,0.00,NA,NA,-99.99,VWS Version 10.39,2013-09-18 12:56:00,
2013-09-18 06:01:00,63.6,58.7,29.77,SE,140,2.0,3.0,84,0.00,NA,NA,-99.99,VWS Version 10.39,2013-09-18 13:01:00,
2013-09-18 06:06:00,63.5,58.6,29.77,ESE,106,0.0,1.0,84,0.00,NA,NA,-99.99,VWS Version 10.39,2013-09-18 13:06:00,
2013-09-18 06:11:00,63.5,58.2,29.78,SE,137,2.0,2.0,83,0.00,NA,NA,-99.99,VWS Version 10.39,2013-09-18 13:11:00,
2013-09-18 06:16:00,63.4,57.8,29.78,East,88,1.0,2.0,82,0.00,NA,NA,-99.99,VWS Version 10.39,2013-09-18 13:16:00,
2013-09-18 06:21:00,63.3,57.7,29.78,East,99,2.0,2.0,82,0.00,NA,NA,-99.99,VWS Version 10.39,2013-09-18 13:21:00,
2013-09-18 06:31:00,63.4,57.8,29.78,East,96,1.0,2.0,82,0.00,NA,NA,-99.99,VWS Version 10.39,2013-09-18 13:31:00,
2013-09-18 06:36:00,63.5,57.9,29.78,ESE,112,2.0,2.0,82,0.00,NA,NA,-99.99,VWS Version 10.39,2013-09-18 13:36:00,
2013-09-18 06:41:00,63.5,57.9,29.78,ESE,111,3.0,4.0,82,0.00,NA,NA,-99.99,VWS Version 10.39,2013-09-18 13:41:00,
2013-09-18 06:46:00,63.5,57.9,29.78,ESE,111,3.0,3.0,82,0.00,NA,NA,-99.99,VWS Version 10.39,2013-09-18 13:46:00,
2013-09-18 06:51:00,63.5,57.9,29.79,East,79,1.0,1.0,82,0.00,NA,NA,-99.99,VWS Version 10.39,2013-09-18 13:51:00,
2013-09-18 06:56:00,63.5,57.9,29.79,East,89,2.0,3.0,82,0.00,NA,NA,-99.99,VWS Version 10.39,2013-09-18 13:56:00,
2013-09-18 07:01:00,63.5,57.9,29.79,East,94,2.0,3.0,82,0.00,NA,NA,-99.99,VWS Version 10.39,2013-09-18 14:01:00,
2013-09-18 07:06:00,63.6,57.7,29.79,East,100,3.0,3.0,81,0.00,NA,NA,-99.99,VWS Version 10.39,2013-09-18 14:06:00,
2013-09-18 07:11:00,63.6,57.7,29.79,ESE,115,2.0,2.0,81,0.00,NA,NA,-99.99,VWS Version 10.39,2013-09-18 14:11:00,
2013-09-18 07:16:00,63.7,57.8,29.79,ESE,112,1.0,1.0,81,0.00,NA,NA,-99.99,VWS Version 10.39,2013-09-18 14:16:00,
2013-09-18 07:21:00,63.7,57.8,29.79,SE,140,3.0,4.0,81,0.00,NA,NA,-99.99,VWS Version 10.39,2013-09-18 14:21:00,
2013-09-18 07:26:00,63.8,57.9,29.79,SE,132,0.0,2.0,81,0.00,NA,NA,-99.99,VWS Version 10.39,2013-09-18 14:26:00,
2013-09-18 07:31:00,63.8,57.9,29.80,ESE,104,1.0,2.0,81,0.00,NA,NA,-99.99,VWS Version 10.39,2013-09-18 14:31:00,
2013-09-18 07:36:00,63.9,58.0,29.80,ESE,114,2.0,2.0,81,0.00,NA,NA,-99.99,VWS Version 10.39,2013-09-18 14:36:00,
2013-09-18 07:41:00,63.9,58.0,29.80,ESE,112,3.0,4.0,81,0.00,NA,NA,-99.99,VWS Version 10.39,2013-09-18 14:41:00,
2013-09-18 07:46:00,63.9,58.0,29.80,SSE,164,1.0,1.0,81,0.00,NA,NA,-99.99,VWS Version 10.39,2013-09-18 14:46:00,
2013-09-18 07:51:00,64.0,58.1,29.80,East,93,3.0,5.0,81,0.00,NA,NA,-99.99,VWS Version 10.39,2013-09-18 14:51:00,
2013-09-18 07:56:00,64.1,58.2,29.80,SSE,166,1.0,3.0,81,0.00,NA,NA,-99.99,VWS Version 10.39,2013-09-18 14:56:00,
2013-09-18 08:01:00,64.1,58.2,29.80,SSW,196,2.0,3.0,81,0.00,NA,NA,-99.99,VWS Version 10.39,2013-09-18 15:01:00,
2013-09-18 08:06:00,64.2,57.9,29.80,South,188,1.0,2.0,80,0.00,NA,NA,-99.99,VWS Version 10.39,2013-09-18 15:06:00,
2013-09-18 08:11:00,64.3,58.0,29.81,ESE,110,4.0,5.0,80,0.00,NA,NA,-99.99,VWS Version 10.39,2013-09-18 15:11:00,
2013-09-18 08:16:00,64.3,58.0,29.81,SE,134,7.0,7.0,80,0.00,NA,NA,-99.99,VWS Version 10.39,2013-09-18 15:16:00,
2013-09-18 08:21:00,64.3,58.0,29.81,SSW,204,0.0,1.0,80,0.00,NA,NA,-99.99,VWS Version 10.39,2013-09-18 15:21:00,
2013-09-18 08:26:00,64.5,58.2,29.81,SSE,155,1.0,4.0,80,0.00,NA,NA,-99.99,VWS Version 10.39,2013-09-18 15:26:00,
2013-09-18 08:31:00,64.6,58.3,29.81,SSE,167,2.0,3.0,80,0.00,NA,NA,-99.99,VWS Version 10.39,2013-09-18 15:31:00,
2013-09-18 08:36:00,64.8,58.1,29.81,South,187,2.0,5.0,79,0.00,NA,NA,-99.99,VWS Version 10.39,2013-09-18 15:36:00,
2013-09-18 08:41:00,64.9,57.9,29.81,SSE,153,1.0,1.0,78,0.00,NA,NA,-99.99,VWS Version 10.39,2013-09-18 15:41:00,
2013-09-18 08:46:00,65.0,58.0,29.81,SSE,167,2.0,5.0,78,0.00,NA,NA,-99.99,VWS Version 10.39,2013-09-18 15:46:00,
2013-09-18 08:51:00,65.2,58.2,29.81,SE,132,5.0,6.0,78,0.00,NA,NA,-99.99,VWS Version 10.39,2013-09-18 15:51:00,
2013-09-18 08:56:00,65.4,58.4,29.81,SE,146,6.0,7.0,78,0.00,NA,NA,-99.99,VWS Version 10.39,2013-09-18 15:56:00,
2013-09-18 09:01:00,65.6,58.2,29.81,SSW,204,5.0,5.0,77,0.00,NA,NA,-99.99,VWS Version 10.39,2013-09-18 16:01:00,
2013-09-18 09:06:00,66.0,58.2,29.81,West,271,2.0,2.0,76,0.00,NA,NA,-99.99,VWS Version 10.39,2013-09-18 16:06:00,
2013-09-18 09:11:00,66.6,58.4,29.81,South,187,1.0,4.0,75,0.00,NA,NA,-99.99,VWS Version 10.39,2013-09-18 16:11:00,
2013-09-18 09:16:00,66.9,58.7,29.81,SW,230,0.0,0.0,75,0.00,NA,NA,-99.99,VWS Version 10.39,2013-09-18 16:16:00,
2013-09-18 09:21:00,67.2,59.0,29.81,SSW,203,2.0,4.0,75,0.00,NA,NA,-99.99,VWS Version 10.39,2013-09-18 16:21:00,
2013-09-18 09:26:00,67.4,59.2,29.81,West,260,2.0,3.0,75,0.00,NA,NA,-99.99,VWS Version 10.39,2013-09-18 16:26:00,
2013-09-18 09:31:00,67.6,59.0,29.81,South,175,4.0,4.0,74,0.00,NA,NA,-99.99,VWS Version 10.39,2013-09-18 16:31:00,
2013-09-18 09:36:00,67.7,59.1,29.81,SSW,211,4.0,4.0,74,0.00,NA,NA,-99.99,VWS Version 10.39,2013-09-18 16:36:00,
2013-09-18 09:41:00,67.7,59.1,29.81,SSE,162,3.0,4.0,74,0.00,NA,NA,-99.99,VWS Version 10.39,2013-09-18 16:41:00,
2013-09-18 09:46:00,67.9,59.3,29.81,SSW,201,3.0,4.0,74,0.00,NA,NA,-99.99,VWS Version 10.39,2013-09-18 16:46:00,
2013-09-18 09:51:00,68.2,58.8,29.81,South,190,3.0,6.0,72,0.00,NA,NA,-99.99,VWS Version 10.39,2013-09-18 16:51:00,
2013-09-18 09:56:00,68.2,58.8,29.81,SSE,157,2.0,2.0,72,0.00,NA,NA,-99.99,VWS Version 10.39,2013-09-18 16:56:00,
2013-09-18 10:01:00,68.6,59.2,29.81,WSW,238,1.0,2.0,72,0.00,NA,NA,-99.99,VWS Version 10.39,2013-09-18 17:01:00,
2013-09-18 10:06:00,68.7,59.3,29.81,WSW,254,2.0,2.0,72,0.00,NA,NA,-99.99,VWS Version 10.39,2013-09-18 17:06:00,
2013-09-18 10:16:00,68.9,59.1,29.81,SSE,164,2.0,3.0,71,0.00,NA,NA,-99.99,VWS Version 10.39,2013-09-18 17:16:00,
2013-09-18 10:21:00,68.9,59.1,29.81,South,180,6.0,6.0,71,0.00,NA,NA,-99.99,VWS Version 10.39,2013-09-18 17:21:00,
2013-09-18 10:26:00,68.8,59.0,29.81,WSW,239,3.0,4.0,71,0.00,NA,NA,-99.99,VWS Version 10.39,2013-09-18 17:26:00,
2013-09-18 10:31:00,68.5,59.1,29.81,South,176,7.0,7.0,72,0.00,NA,NA,-99.99,VWS Version 10.39,2013-09-18 17:31:00,
2013-09-18 10:41:00,68.5,58.7,29.80,SSW,206,2.0,3.0,71,0.00,NA,NA,-99.99,VWS Version 10.39,2013-09-18 17:41:00,
2013-09-18 10:46:00,68.6,59.2,29.81,SSW,202,6.0,6.0,72,0.00,NA,NA,-99.99,VWS Version 10.39,2013-09-18 17:46:00,
2013-09-18 10:51:00,68.4,59.0,29.81,South,191,2.0,4.0,72,0.00,NA,NA,-99.99,VWS Version 10.39,2013-09-18 17:51:00,
2013-09-18 10:56:00,68.6,59.2,29.81,SW,217,4.0,4.0,72,0.00,NA,NA,-99.99,VWS Version 10.39,2013-09-18 17:56:00,
2013-09-18 11:01:00,68.9,59.5,29.81,SW,216,1.0,3.0,72,0.00,NA,NA,-99.99,VWS Version 10.39,2013-09-18 18:01:00,
2013-09-18 11:06:00,69.4,59.6,29.82,South,182,2.0,5.0,71,0.00,NA,NA,-99.99,VWS Version 10.39,2013-09-18 18:06:00,
2013-09-18 11:11:00,69.4,59.6,29.81,SSE,155,2.0,2.0,71,0.00,NA,NA,-99.99,VWS Version 10.39,2013-09-18 18:11:00,
2013-09-18 11:16:00,69.7,59.9,29.81,SSW,212,6.0,6.0,71,0.00,NA,NA,-99.99,VWS Version 10.39,2013-09-18 18:16:00,
2013-09-18 11:21:00,69.9,60.1,29.81,West,263,4.0,4.0,71,0.00,NA,NA,-99.99,VWS Version 10.39,2013-09-18 18:21:00,
2013-09-18 11:26:00,70.1,59.9,29.81,SSW,203,3.0,4.0,70,0.00,NA,NA,-99.99,VWS Version 10.39,2013-09-18 18:26:00,
2013-09-18 11:31:00,70.1,59.9,29.81,SW,217,3.0,5.0,70,0.00,NA,NA,-99.99,VWS Version 10.39,2013-09-18 18:31:00,
2013-09-18 11:36:00,70.4,59.8,29.81,South,189,2.0,4.0,69,0.00,NA,NA,-99.99,VWS Version 10.39,2013-09-18 18:36:00,
2013-09-18 11:41:00,70.8,59.7,29.81,WSW,242,2.0,4.0,68,0.00,NA,NA,-99.99,VWS Version 10.39,2013-09-18 18:41:00,
2013-09-18 11:46:00,70.5,59.4,29.82,SE,140,3.0,3.0,68,0.00,NA,NA,-99.99,VWS Version 10.39,2013-09-18 18:46:00,
2013-09-18 11:51:00,70.5,59.8,29.82,West,279,4.0,4.0,69,0.00,NA,NA,-99.99,VWS Version 10.39,2013-09-18 18:51:00,
2013-09-18 11:56:00,70.7,59.6,29.82,West,266,7.0,7.0,68,0.00,NA,NA,-99.99,VWS Version 10.39,2013-09-18 18:56:00,
2013-09-18 12:01:00,70.2,60.0,29.82,ESE,115,2.0,2.0,70,0.00,NA,NA,-99.99,VWS Version 10.39,2013-09-18 19:01:00,
2013-09-18 12:06:00,70.6,60.0,29.81,South,190,2.0,4.0,69,0.00,NA,NA,-99.99,VWS Version 10.39,2013-09-18 19:06:00,
2013-09-18 12:11:00,70.7,60.0,29.81,ENE,67,3.0,3.0,69,0.00,NA,NA,-99.99,VWS Version 10.39,2013-09-18 19:11:00,
2013-09-18 12:16:00,70.7,59.6,29.81,South,182,5.0,5.0,68,0.00,NA,NA,-99.99,VWS Version 10.39,2013-09-18 19:16:00,
2013-09-18 12:21:00,70.7,60.0,29.80,SSW,212,4.0,6.0,69,0.00,NA,NA,-99.99,VWS Version 10.39,2013-09-18 19:21:00,
2013-09-18 12:26:00,70.8,60.1,29.80,SSW,211,5.0,6.0,69,0.00,NA,NA,-99.99,VWS Version 10.39,2013-09-18 19:26:00,
2013-09-18 12:31:00,71.3,60.6,29.80,South,184,2.0,5.0,69,0.00,NA,NA,-99.99,VWS Version 10.39,2013-09-18 19:31:00,
2013-09-18 12:36:00,71.0,59.9,29.80,ESE,119,2.0,3.0,68,0.00,NA,NA,-99.99,VWS Version 10.39,2013-09-18 19:36:00,
2013-09-18 12:41:00,70.9,59.8,29.79,South,173,4.0,4.0,68,0.00,NA,NA,-99.99,VWS Version 10.39,2013-09-18 19:41:00,
2013-09-18 12:46:00,70.9,59.8,29.80,WNW,284,0.0,3.0,68,0.00,NA,NA,-99.99,VWS Version 10.39,2013-09-18 19:46:00,
2013-09-18 12:51:00,71.2,60.1,29.80,South,184,3.0,4.0,68,0.00,NA,NA,-99.99,VWS Version 10.39,2013-09-18 19:51:00,
2013-09-18 12:56:00,71.2,60.5,29.80,SW,214,2.0,3.0,69,0.00,NA,NA,-99.99,VWS Version 10.39,2013-09-18 19:56:00,
2013-09-18 13:01:00,71.2,60.5,29.80,West,271,2.0,3.0,69,0.00,NA,NA,-99.99,VWS Version 10.39,2013-09-18 20:01:00,
2013-09-18 13:06:00,71.5,60.8,29.80,West,259,5.0,5.0,69,0.00,NA,NA,-99.99,VWS Version 10.39,2013-09-18 20:06:00,
2013-09-18 13:11:00,71.3,61.0,29.80,South,178,1.0,3.0,70,0.00,NA,NA,-99.99,VWS Version 10.39,2013-09-18 20:11:00,
2013-09-18 13:16:00,70.9,60.6,29.80,SSE,159,2.0,4.0,70,0.00,NA,NA,-99.99,VWS Version 10.39,2013-09-18 20:16:00,
2013-09-18 13:21:00,70.9,60.6,29.80,SSW,212,4.0,4.0,70,0.00,NA,NA,-99.99,VWS Version 10.39,2013-09-18 20:21:00,
2013-09-18 13:31:00,71.8,61.1,29.80,ESE,115,0.0,2.0,69,0.00,NA,NA,-99.99,VWS Version 10.39,2013-09-18 20:31:00,
2013-09-18 13:36:00,72.2,60.7,29.80,WNW,290,4.0,5.0,67,0.00,NA,NA,-99.99,VWS Version 10.39,2013-09-18 20:36:00,
2013-09-18 13:41:00,72.2,61.1,29.80,WSW,242,2.0,3.0,68,0.00,NA,NA,-99.99,VWS Version 10.39,2013-09-18 20:41:00,
2013-09-18 13:46:00,72.2,61.1,29.79,West,259,3.0,5.0,68,0.00,NA,NA,-99.99,VWS Version 10.39,2013-09-18 20:46:00,
2013-09-18 13:51:00,71.9,60.8,29.79,South,188,3.0,5.0,68,0.00,NA,NA,-99.99,VWS Version 10.39,2013-09-18 20:51:00,
2013-09-18 13:56:00,71.7,60.6,29.78,WSW,242,2.0,3.0,68,0.00,NA,NA,-99.99,VWS Version 10.39,2013-09-18 20:56:00,
2013-09-18 14:01:00,72.0,60.9,29.78,West,270,1.0,2.0,68,0.00,NA,NA,-99.99,VWS Version 10.39,2013-09-18 21:01:00,
2013-09-18 14:11:00,72.1,61.0,29.78,SSW,202,4.0,4.0,68,0.00,NA,NA,-99.99,VWS Version 10.39,2013-09-18 21:11:00,
2013-09-18 14:16:00,72.1,61.0,29.78,SSW,200,3.0,5.0,68,0.00,NA,NA,-99.99,VWS Version 10.39,2013-09-18 21:16:00,
2013-09-18 14:21:00,72.1,60.5,29.78,SW,232,3.0,6.0,67,0.00,NA,NA,-99.99,VWS Version 10.39,2013-09-18 21:21:00,
2013-09-18 14:26:00,71.9,60.8,29.78,SSW,194,1.0,3.0,68,0.00,NA,NA,-99.99,VWS Version 10.39,2013-09-18 21:26:00,
2013-09-18 14:31:00,71.9,60.8,29.78,SW,233,5.0,5.0,68,0.00,NA,NA,-99.99,VWS Version 10.39,2013-09-18 21:31:00,
2013-09-18 14:36:00,72.0,60.9,29.78,SW,227,1.0,3.0,68,0.00,NA,NA,-99.99,VWS Version 10.39,2013-09-18 21:36:00,
2013-09-18 14:41:00,72.2,61.1,29.77,WNW,283,0.0,3.0,68,0.00,NA,NA,-99.99,VWS Version 10.39,2013-09-18 21:41:00,
2013-09-18 14:46:00,72.1,60.5,29.77,WSW,238,2.0,2.0,67,0.00,NA,NA,-99.99,VWS Version 10.39,2013-09-18 21:46:00,
2013-09-18 14:51:00,72.1,60.5,29.77,West,259,3.0,3.0,67,0.00,NA,NA,-99.99,VWS Version 10.39,2013-09-18 21:51:00,
2013-09-18 14:56:00,72.1,61.0,29.77,SW,215,5.0,6.0,68,0.00,NA,NA,-99.99,VWS Version 10.39,2013-09-18 21:56:00,
2013-09-18 15:01:00,72.5,60.9,29.77,NW,318,4.0,5.0,67,0.00,NA,NA,-99.99,VWS Version 10.39,2013-09-18 22:01:00,
2013-09-18 15:11:00,72.3,61.2,29.76,WSW,252,3.0,3.0,68,0.00,NA,NA,-99.99,VWS Version 10.39,2013-09-18 22:11:00,
2013-09-18 15:21:00,72.4,61.2,29.76,SSW,208,3.0,4.0,68,0.00,NA,NA,-99.99,VWS Version 10.39,2013-09-18 22:21:00,
2013-09-18 15:26:00,72.4,61.2,29.76,SW,215,5.0,5.0,68,0.00,NA,NA,-99.99,VWS Version 10.39,2013-09-18 22:26:00,
2013-09-18 15:31:00,72.4,61.7,29.76,WSW,256,3.0,5.0,69,0.00,NA,NA,-99.99,VWS Version 10.39,2013-09-18 22:31:00,
2013-09-18 15:36:00,72.6,61.9,29.76,West,279,3.0,5.0,69,0.00,NA,NA,-99.99,VWS Version 10.39,2013-09-18 22:36:00,
2013-09-18 15:41:00,72.2,61.5,29.76,SSW,199,3.0,5.0,69,0.00,NA,NA,-99.99,VWS Version 10.39,2013-09-18 22:41:00,
2013-09-18 15:46:00,71.7,61.4,29.76,NW,309,3.0,3.0,70,0.00,NA,NA,-99.99,VWS Version 10.39,2013-09-18 22:46:00,
2013-09-18 15:51:00,71.7,61.4,29.76,SW,219,0.0,1.0,70,0.00,NA,NA,-99.99,VWS Version 10.39,2013-09-18 22:51:00,
2013-09-18 15:56:00,72.0,61.7,29.75,SSW,210,2.0,3.0,70,0.00,NA,NA,-99.99,VWS Version 10.39,2013-09-18 22:56:00,
2013-09-18 16:01:00,72.2,61.9,29.76,West,267,4.0,5.0,70,0.00,NA,NA,-99.99,VWS Version 10.39,2013-09-18 23:01:00,
2013-09-18 16:06:00,72.3,62.0,29.76,SSW,200,3.0,3.0,70,0.00,NA,NA,-99.99,VWS Version 10.39,2013-09-18 23:06:00,
2013-09-18 16:11:00,72.3,62.0,29.75,ESE,123,2.0,6.0,70,0.00,NA,NA,-99.99,VWS Version 10.39,2013-09-18 23:11:00,
2013-09-18 16:16:00,72.0,61.7,29.76,SSW,200,1.0,2.0,70,0.00,NA,NA,-99.99,VWS Version 10.39,2013-09-18 23:16:00,
2013-09-18 16:21:00,71.9,61.6,29.76,WSW,238,5.0,5.0,70,0.00,NA,NA,-99.99,VWS Version 10.39,2013-09-18 23:21:00,
2013-09-18 16:26:00,71.7,61.8,29.75,SW,235,0.0,1.0,71,0.00,NA,NA,-99.99,VWS Version 10.39,2013-09-18 23:26:00,
2013-09-18 16:31:00,71.6,61.7,29.75,SW,216,2.0,3.0,71,0.00,NA,NA,-99.99,VWS Version 10.39,2013-09-18 23:31:00,
2013-09-18 16:36:00,71.6,62.1,29.75,SW,229,3.0,3.0,72,0.00,NA,NA,-99.99,VWS Version 10.39,2013-09-18 23:36:00,
2013-09-18 16:41:00,71.7,61.8,29.75,SSE,160,2.0,3.0,71,0.00,NA,NA,-99.99,VWS Version 10.39,2013-09-18 23:41:00,
2013-09-18 16:46:00,71.5,62.0,29.75,South,190,1.0,1.0,72,0.00,NA,NA,-99.99,VWS Version 10.39,2013-09-18 23:46:00,
2013-09-18 16:51:00,71.6,61.7,29.75,WNW,283,4.0,4.0,71,0.00,NA,NA,-99.99,VWS Version 10.39,2013-09-18 23:51:00,
2013-09-18 16:56:00,71.7,61.8,29.75,NW,319,1.0,2.0,71,0.00,NA,NA,-99.99,VWS Version 10.39,2013-09-18 23:56:00,
2013-09-18 17:01:00,71.7,61.8,29.75,NW,316,3.0,4.0,71,0.00,NA,NA,-99.99,VWS Version 10.39,2013-09-19 00:01:00,
2013-09-18 17:06:00,71.5,62.0,29.75,West,278,4.0,4.0,72,0.00,NA,NA,-99.99,VWS Version 10.39,2013-09-19 00:06:00,
2013-09-18 17:11:00,71.4,62.3,29.75,SSW,201,0.0,1.0,73,0.00,NA,NA,-99.99,VWS Version 10.39,2013-09-19 00:11:00,
2013-09-18 17:16:00,71.6,62.1,29.75,WSW,242,2.0,2.0,72,0.00,NA,NA,-99.99,VWS Version 10.39,2013-09-19 00:16:00,
2013-09-18 17:21:00,71.7,62.2,29.75,SSW,209,1.0,3.0,72,0.00,NA,NA,-99.99,VWS Version 10.39,2013-09-19 00:21:00,
2013-09-18 17:26:00,71.4,61.9,29.75,WNW,291,3.0,3.0,72,0.00,NA,NA,-99.99,VWS Version 10.39,2013-09-19 00:26:00,
2013-09-18 17:31:00,71.2,62.1,29.75,West,266,6.0,6.0,73,0.00,NA,NA,-99.99,VWS Version 10.39,2013-09-19 00:31:00,
2013-09-18 17:36:00,71.2,62.1,29.75,SSW,209,1.0,2.0,73,0.00,NA,NA,-99.99,VWS Version 10.39,2013-09-19 00:36:00,
2013-09-18 17:41:00,71.3,61.8,29.75,SW,218,0.0,1.0,72,0.00,NA,NA,-99.99,VWS Version 10.39,2013-09-19 00:41:00,
2013-09-18 17:46:00,71.3,61.8,29.75,West,262,1.0,2.0,72,0.00,NA,NA,-99.99,VWS Version 10.39,2013-09-19 00:46:00,
2013-09-18 17:51:00,71.3,62.2,29.75,SSW,196,1.0,1.0,73,0.00,NA,NA,-99.99,VWS Version 10.39,2013-09-19 00:51:00,
2013-09-18 17:56:00,71.3,61.8,29.75,SW,231,3.0,3.0,72,0.00,NA,NA,-99.99,VWS Version 10.39,2013-09-19 00:56:00,
2013-09-18 18:01:00,70.8,62.1,29.75,WNW,290,3.0,3.0,74,0.00,NA,NA,-99.99,VWS Version 10.39,2013-09-19 01:01:00,
2013-09-18 18:11:00,69.1,61.2,29.75,WNW,294,2.0,3.0,76,0.00,NA,NA,-99.99,VWS Version 10.39,2013-09-19 01:11:00,
2013-09-18 18:16:00,68.8,61.3,29.75,West,279,5.0,5.0,77,0.00,NA,NA,-99.99,VWS Version 10.39,2013-09-19 01:16:00,
2013-09-18 18:21:00,68.8,61.3,29.75,SW,235,1.0,1.0,77,0.00,NA,NA,-99.99,VWS Version 10.39,2013-09-19 01:21:00,
2013-09-18 18:26:00,68.7,61.2,29.75,WSW,244,0.0,1.0,77,0.00,NA,NA,-99.99,VWS Version 10.39,2013-09-19 01:26:00,
2013-09-18 18:31:00,68.6,61.1,29.75,WNW,288,3.0,4.0,77,0.00,NA,NA,-99.99,VWS Version 10.39,2013-09-19 01:31:00,
2013-09-18 18:36:00,68.4,60.9,29.75,West,269,2.0,3.0,77,0.00,NA,NA,-99.99,VWS Version 10.39,2013-09-19 01:36:00,
2013-09-18 18:41:00,68.0,60.9,29.75,WSW,250,0.0,1.0,78,0.00,NA,NA,-99.99,VWS Version 10.39,2013-09-19 01:41:00,
2013-09-18 18:46:00,67.8,61.1,29.76,West,264,3.0,3.0,79,0.00,NA,NA,-99.99,VWS Version 10.39,2013-09-19 01:46:00,
2013-09-18 18:51:00,67.4,61.0,29.76,West,265,1.0,2.0,80,0.00,NA,NA,-99.99,VWS Version 10.39,2013-09-19 01:51:00,
2013-09-18 18:56:00,67.0,61.0,29.76,West,267,2.0,2.0,81,0.00,NA,NA,-99.99,VWS Version 10.39,2013-09-19 01:56:00,
2013-09-18 19:01:00,66.8,60.8,29.76,West,267,0.0,0.0,81,0.00,NA,NA,-99.99,VWS Version 10.39,2013-09-19 02:01:00,
2013-09-18 19:06:00,66.6,60.9,29.76,West,260,1.0,2.0,82,0.00,NA,NA,-99.99,VWS Version 10.39,2013-09-19 02:06:00,
2013-09-18 19:11:00,66.4,60.7,29.76,WSW,245,1.0,1.0,82,0.00,NA,NA,-99.99,VWS Version 10.39,2013-09-19 02:11:00,
2013-09-18 19:16:00,66.3,61.0,29.76,WSW,256,2.0,2.0,83,0.00,NA,NA,-99.99,VWS Version 10.39,2013-09-19 02:16:00,
2013-09-18 19:21:00,66.2,60.9,29.76,WSW,248,0.0,0.0,83,0.00,NA,NA,-99.99,VWS Version 10.39,2013-09-19 02:21:00,
2013-09-18 19:26:00,66.1,60.8,29.76,WSW,250,1.0,1.0,83,0.00,NA,NA,-99.99,VWS Version 10.39,2013-09-19 02:26:00,
2013-09-18 19:36:00,65.9,60.9,29.77,WNW,294,1.0,2.0,84,0.00,NA,NA,-99.99,VWS Version 10.39,2013-09-19 02:36:00,
2013-09-18 19:41:00,65.9,60.6,29.77,WNW,290,2.0,2.0,83,0.00,NA,NA,-99.99,VWS Version 10.39,2013-09-19 02:41:00,
2013-09-18 19:46:00,65.8,60.5,29.77,WNW,292,2.0,2.0,83,0.00,NA,NA,-99.99,VWS Version 10.39,2013-09-19 02:46:00,
2013-09-18 19:51:00,65.8,60.5,29.77,WNW,291,0.0,1.0,83,0.00,NA,NA,-99.99,VWS Version 10.39,2013-09-19 02:51:00,
2013-09-18 19:56:00,65.7,60.4,29.77,WNW,291,0.0,0.0,83,0.00,NA,NA,-99.99,VWS Version 10.39,2013-09-19 02:56:00,
2013-09-18 20:01:00,65.7,60.7,29.77,WNW,291,0.0,1.0,84,0.00,NA,NA,-99.99,VWS Version 10.39,2013-09-19 03:01:00,
2013-09-18 20:06:00,65.6,60.6,29.77,WNW,291,0.0,1.0,84,0.00,NA,NA,-99.99,VWS Version 10.39,2013-09-19 03:06:00,
2013-09-18 20:11:00,65.6,60.6,29.77,WNW,291,0.0,0.0,84,0.00,NA,NA,-99.99,VWS Version 10.39,2013-09-19 03:11:00,
2013-09-18 20:21:00,65.3,60.3,29.78,WNW,291,0.0,0.0,84,0.00,NA,NA,-99.99,VWS Version 10.39,2013-09-19 03:21:00,
2013-09-18 20:26:00,65.2,60.2,29.78,WNW,291,0.0,0.0,84,0.00,NA,NA,-99.99,VWS Version 10.39,2013-09-19 03:26:00,
2013-09-18 20:31:00,65.0,60.0,29.78,WNW,291,0.0,0.0,84,0.00,NA,NA,-99.99,VWS Version 10.39,2013-09-19 03:31:00,
2013-09-18 20:36:00,64.9,60.3,29.78,WNW,291,0.0,0.0,85,0.00,NA,NA,-99.99,VWS Version 10.39,2013-09-19 03:36:00,
2013-09-18 20:41:00,64.8,60.2,29.78,WNW,291,0.0,0.0,85,0.00,NA,NA,-99.99,VWS Version 10.39,2013-09-19 03:41:00,
2013-09-18 20:46:00,64.8,60.2,29.78,WNW,291,0.0,0.0,85,0.00,NA,NA,-99.99,VWS Version 10.39,2013-09-19 03:46:00,
2013-09-18 20:51:00,64.7,60.1,29.78,WNW,291,0.0,0.0,85,0.00,NA,NA,-99.99,VWS Version 10.39,2013-09-19 03:51:00,
2013-09-18 20:56:00,64.6,60.3,29.78,WNW,291,0.0,0.0,86,0.00,NA,NA,-99.99,VWS Version 10.39,2013-09-19 03:56:00,
2013-09-18 21:01:00,64.5,59.9,29.78,WNW,291,0.0,0.0,85,0.00,NA,NA,-99.99,VWS Version 10.39,2013-09-19 04:01:00,
2013-09-18 21:06:00,64.4,59.8,29.78,WNW,291,0.0,0.0,85,0.00,NA,NA,-99.99,VWS Version 10.39,2013-09-19 04:06:00,
2013-09-18 21:11:00,64.1,59.5,29.79,WNW,291,0.0,0.0,85,0.00,NA,NA,-99.99,VWS Version 10.39,2013-09-19 04:11:00,
2013-09-18 21:16:00,64.0,59.7,29.79,WNW,291,0.0,0.0,86,0.00,NA,NA,-99.99,VWS Version 10.39,2013-09-19 04:16:00,
2013-09-18 21:21:00,63.8,59.5,29.79,WNW,291,0.0,0.0,86,0.00,NA,NA,-99.99,VWS Version 10.39,2013-09-19 04:21:00,
2013-09-18 21:26:00,63.8,59.9,29.79,WNW,291,0.0,0.0,87,0.00,NA,NA,-99.99,VWS Version 10.39,2013-09-19 04:26:00,
2013-09-18 21:31:00,63.8,59.5,29.79,WNW,291,0.0,0.0,86,0.00,NA,NA,-99.99,VWS Version 10.39,2013-09-19 04:31:00,
2013-09-18 21:36:00,63.7,59.8,29.79,WNW,291,0.0,0.0,87,0.00,NA,NA,-99.99,VWS Version 10.39,2013-09-19 04:36:00,
2013-09-18 21:41:00,63.8,59.9,29.79,WNW,291,0.0,0.0,87,0.00,NA,NA,-99.99,VWS Version 10.39,2013-09-19 04:41:00,
2013-09-18 21:46:00,63.8,59.5,29.79,WNW,291,0.0,0.0,86,0.00,NA,NA,-99.99,VWS Version 10.39,2013-09-19 04:46:00,
2013-09-18 21:51:00,63.8,59.5,29.79,WNW,291,0.0,0.0,86,0.00,NA,NA,-99.99,VWS Version 10.39,2013-09-19 04:51:00,
2013-09-18 21:56:00,63.6,59.3,29.79,WNW,291,0.0,0.0,86,0.00,NA,NA,-99.99,VWS Version 10.39,2013-09-19 04:56:00,
2013-09-18 22:01:00,63.6,59.7,29.79,WNW,291,0.0,1.0,87,0.00,NA,NA,-99.99,VWS Version 10.39,2013-09-19 05:01:00,
2013-09-18 22:06:00,63.5,59.6,29.79,WNW,291,1.0,1.0,87,0.00,NA,NA,-99.99,VWS Version 10.39,2013-09-19 05:06:00,
2013-09-18 22:11:00,63.6,59.7,29.78,WNW,291,0.0,0.0,87,0.00,NA,NA,-99.99,VWS Version 10.39,2013-09-19 05:11:00,
2013-09-18 22:16:00,63.6,59.7,29.78,WNW,291,0.0,0.0,87,0.00,NA,NA,-99.99,VWS Version 10.39,2013-09-19 05:16:00,
2013-09-18 22:21:00,63.5,59.6,29.78,WNW,291,2.0,2.0,87,0.00,NA,NA,-99.99,VWS Version 10.39,2013-09-19 05:21:00,
2013-09-18 22:26:00,63.5,59.6,29.78,WNW,291,0.0,0.0,87,0.00,NA,NA,-99.99,VWS Version 10.39,2013-09-19 05:26:00,
2013-09-18 22:31:00,63.5,59.6,29.78,WNW,292,1.0,1.0,87,0.00,NA,NA,-99.99,VWS Version 10.39,2013-09-19 05:31:00,
2013-09-18 22:36:00,63.5,59.6,29.79,WNW,292,0.0,1.0,87,0.00,NA,NA,-99.99,VWS Version 10.39,2013-09-19 05:36:00,
2013-09-18 22:41:00,63.5,59.6,29.78,WNW,292,0.0,0.0,87,0.00,NA,NA,-99.99,VWS Version 10.39,2013-09-19 05:41:00,
2013-09-18 22:46:00,63.4,59.2,29.78,WNW,292,0.0,1.0,86,0.00,NA,NA,-99.99,VWS Version 10.39,2013-09-19 05:46:00,
2013-09-18 22:51:00,63.4,59.2,29.78,WNW,292,0.0,1.0,86,0.00,NA,NA,-99.99,VWS Version 10.39,2013-09-19 05:51:00,
2013-09-18 22:56:00,63.3,59.0,29.78,WNW,292,1.0,2.0,86,0.00,NA,NA,-99.99,VWS Version 10.39,2013-09-19 05:56:00,
2013-09-18 23:06:00,63.1,59.2,29.78,NW,304,0.0,1.0,87,0.00,NA,NA,-99.99,VWS Version 10.39,2013-09-19 06:06:00,
2013-09-18 23:11:00,63.0,59.1,29.78,NW,312,0.0,1.0,87,0.00,NA,NA,-99.99,VWS Version 10.39,2013-09-19 06:11:00,
2013-09-18 23:16:00,62.9,59.0,29.78,NW,313,0.0,1.0,87,0.00,NA,NA,-99.99,VWS Version 10.39,2013-09-19 06:16:00,
2013-09-18 23:21:00,62.9,59.0,29.78,NW,313,0.0,1.0,87,0.00,NA,NA,-99.99,VWS Version 10.39,2013-09-19 06:21:00,
2013-09-18 23:26:00,62.9,59.0,29.78,NW,313,0.0,0.0,87,0.00,NA,NA,-99.99,VWS Version 10.39,2013-09-19 06:26:00,
2013-09-18 23:31:00,62.8,58.9,29.78,NW,313,0.0,1.0,87,0.00,NA,NA,-99.99,VWS Version 10.39,2013-09-19 06:31:00,
2013-09-18 23:36:00,62.7,58.8,29.78,NW,319,2.0,2.0,87,0.00,NA,NA,-99.99,VWS Version 10.39,2013-09-19 06:36:00,
2013-09-18 23:41:00,62.7,58.8,29.78,NNE,18,1.0,1.0,87,0.00,NA,NA,-99.99,VWS Version 10.39,2013-09-19 06:41:00,
2013-09-18 23:46:00,62.6,58.7,29.78,NNE,19,1.0,2.0,87,0.00,NA,NA,-99.99,VWS Version 10.39,2013-09-19 06:46:00,
2013-09-18 23:51:00,62.5,58.6,29.79,NNE,19,1.0,1.0,87,0.00,NA,NA,-99.99,VWS Version 10.39,2013-09-19 06:51:00,
2013-09-18 23:56:00,62.4,58.5,29.79,NNE,22,3.0,3.0,87,0.00,NA,NA,-99.99,VWS Version 10.39,2013-09-19 06:56:00,